Find Eaglet 1

NORAD ID: 43790 Int'l Des: 2018-099 Owner: OHBI Country: I operational
LEOCIRCULARRETROGRADESSO

現在のビュー

3D地球を読み込み中...

Eaglet 1について

説明を読み込み中...

次回通過

Passes for default location (London). Set your location on the main map for personalized predictions.

高度履歴

Loading altitude history...

軌道要素

1 43790U 18099AJ 26150.06232597 .00005427 00000-0 31234-3 0 9992
2 43790 97.4244 200.2118 0012441 54.7398 305.4996 15.12784320409593
Epoch: May 30, 2026 • Age: 10 hours

現在のステータス

高度 532.8 km
速度 7.60 km/s
衛星直下点 19.89°N, 40.56°W
打ち上げ日 Dec 3, 2018
運用期間 7.4 years
タイプ other

技術仕様

分類 Payload
質量 5.00 kg
乾燥質量 5.00 kg
総質量 5.00 kg
長さ 0.30 m
直径 0.10 m
スパン 0.30 m
形状 Box+2 pan
製造者 OHBI
バスタイプ Cubesat 3U
フェーズステータス In Orbit
所有者/国 OHBI/I

Most Searched